{"data":{"norad_id":41861,"intl_designator":"2016-069C","name":"GSAT0213 (GALILEO 17)","alt_names":[],"object_type":"PAYLOAD","status":"ACTIVE","operator":null,"country":"ESA","launch_date":"2016-11-17","launch_site_code":"FRGUI","launch_vehicle":null,"mission":null,"orbit_class":"UNKNOWN","rcs_meters":14.1741,"size_class":null,"mass_kg":null,"dimensions":null,"purposes":["earth_obs","nav"],"wikipedia_slug":null,"has_3d_model":false,"image_url":null,"decayed_at":null,"tle_current":{"epoch":"2026-05-23T07:54:32.351904Z","epoch_age_seconds":213359,"freshness":"STALE","line1":"1 41861U 16069C   26143.32954111  .00000019  00000+0  00000+0 0  9992","line2":"2 41861  55.4841 101.7765 0005510 308.1575  51.7536  1.70474331 59096","mean_motion":1.70474331,"eccentricity":0.000551,"inclination_deg":55.4841,"raan_deg":101.7765,"arg_perigee_deg":308.1575,"mean_anomaly_deg":51.7536,"bstar":0,"rev_number":5909,"period_min":844.70195105209,"perigee_km":23205.834986844,"apogee_km":23238.454497323,"semimajor_km":29600.281742084,"source":"CELESTRAK","updated_at":"2026-05-25T13:38:24.058608Z"}}}